Satellite-Ground Cal/Val Region Overpasses Predictions

Prediction of Satellite NPP Overpassing Cal/Val Region: PacNW

Region Location: (Latitude: 10.00, Longitude: 139.50) to (Latitude: 22.70, Longitude: 165.60).

Table of predicted overpasses for the next 14.0 days since TLE Epoch: 11/25/2017
Interval Starting Time Starting Location Ending Time Ending Location
1 11/25/2017 15:43:24 ( 22.67, 149.08) 11/25/2017 15:46:59 ( 10.05, 146.08)
2 11/26/2017 02:52:29 ( 10.01, 156.62) 11/26/2017 02:56:05 ( 22.69, 153.60)
3 11/26/2017 15:24:22 ( 22.69, 153.85) 11/26/2017 15:27:58 ( 10.01, 150.83)
4 11/27/2017 02:33:27 ( 10.05, 161.37) 11/27/2017 02:37:02 ( 22.67, 158.37)
5 11/27/2017 15:05:20 ( 22.65, 158.59) 11/27/2017 15:08:55 ( 10.03, 155.59)
6 11/28/2017 02:15:05 ( 12.38, 165.59) 11/28/2017 02:18:00 ( 22.66, 163.13)
7 11/28/2017 03:55:55 ( 10.04, 140.75) 11/28/2017 03:57:26 ( 15.39, 139.51)
8 11/28/2017 14:46:18 ( 22.67, 163.35) 11/28/2017 14:49:53 ( 10.05, 160.36)
9 11/29/2017 03:36:52 ( 10.02, 145.51) 11/29/2017 03:40:27 ( 22.65, 142.51)
10 11/29/2017 14:30:15 ( 12.12, 165.59) 11/29/2017 14:30:51 ( 10.01, 165.10)
11 11/29/2017 16:08:45 ( 22.68, 142.74) 11/29/2017 16:12:20 ( 10.06, 139.74)
12 11/30/2017 03:17:50 ( 10.01, 150.27) 11/30/2017 03:21:26 ( 22.69, 147.26)
13 11/30/2017 15:49:43 ( 22.69, 147.50) 11/30/2017 15:53:19 ( 10.02, 144.49)
14 12/01/2017 02:58:48 ( 10.05, 155.02) 12/01/2017 03:02:23 ( 22.68, 152.02)
15 12/01/2017 15:30:41 ( 22.65, 152.25) 12/01/2017 15:34:16 ( 10.03, 149.25)
16 12/02/2017 02:39:46 ( 10.04, 159.78) 12/02/2017 02:43:21 ( 22.66, 156.78)
17 12/02/2017 15:11:39 ( 22.67, 157.01) 12/02/2017 15:15:14 ( 10.05, 154.01)
18 12/03/2017 02:20:44 ( 10.02, 164.54) 12/03/2017 02:24:19 ( 22.65, 161.54)
19 12/03/2017 14:52:36 ( 22.68, 161.77) 12/03/2017 14:56:12 ( 10.00, 158.76)
20 12/04/2017 03:43:11 ( 10.02, 143.93) 12/04/2017 03:46:47 ( 22.70, 140.91)
21 12/04/2017 14:34:39 ( 18.89, 165.60) 12/04/2017 14:37:10 ( 10.02, 163.52)
22 12/04/2017 16:15:04 ( 22.69, 141.16) 12/04/2017 16:17:00 ( 15.89, 139.51)
23 12/05/2017 03:24:09 ( 10.00, 148.69) 12/05/2017 03:27:45 ( 22.69, 145.68)
24 12/05/2017 15:56:02 ( 22.65, 145.90) 12/05/2017 15:59:37 ( 10.03, 142.91)
25 12/06/2017 03:05:07 ( 10.05, 153.44) 12/06/2017 03:08:42 ( 22.67, 150.44)
26 12/06/2017 15:37:00 ( 22.66, 150.67) 12/06/2017 15:40:35 ( 10.04, 147.67)
27 12/07/2017 02:46:05 ( 10.04, 158.20) 12/07/2017 02:49:40 ( 22.66, 155.20)
28 12/07/2017 15:17:57 ( 22.67, 155.43) 12/07/2017 15:21:32 ( 10.05, 152.43)
29 12/08/2017 02:27:02 ( 10.02, 162.96) 12/08/2017 02:30:37 ( 22.65, 159.96)
30 12/08/2017 14:58:55 ( 22.69, 160.19) 12/08/2017 15:02:31 ( 10.01, 157.17)


NCC Satellite Cal/Val Overpasses Prediction Service
